SCP
0 0 0 0 0 0 0 0 0 0 0 0 0 0 0 0 0 0 0 0 0 0 0 0 0 0 0 0 0 0 0 0 0 0 0 0 0 0 0 0 0 0 0 0
0 0 0 0 0 0 0 0 0 0 0 0 0 0 0 0 0 0 0 0 0 0 0 0 0 0 0 0 0 0 0 0 0 0 0 0 0 0 0 0 0 0 0 0
0 0 0 0 0 0 0 0 0 0 0 0 0 0 0 0 0 0 0 0 0 0 0 0 0 0 0 0 0 0 0 0 0 0 0 0 0 0 0 0 0 0 0 0
0 0 0 0 0 0 0 0 0 0 0 0 0 0 0 0 0 0 0 0 0 0 0 0 0 0 0 0 0 0 0 0 0 0 0 0 0 0 0 0 0 0 0 0
0 0 0 0 0 0 0 0 0 0 0 0 0 0 0 0 0 0 0 0 0 0 0 0 0 0 0 0 0 0 0 0 0 0 0 0 0 0 0 0 0 0 0 0
0 0 0 0 0 0 0 0 0 0 0 0 0 0 0 0 0 0 0 0 0 0 0 0 0 0 0 0 0 0 0 0 0 0 0 0 0 0 0 0 0 0 0 0
0 0 0 0 0 0 0 0 0 0 0 0 0 0 0 0 0 0 0 0 0 0 0 0 0 0 0 0 0 0 0 0 0 0 0 0 0 0 0 0 0 0 0 0
0 0 0 0 0 0 0 0 0 0 0 0 0 0 0 0 0 0 0 0 0 0 0 0 0 0 0 0 0 0 0 0 0 0 0 0 0 0 0 0 0 0 0 0
0 0 0 0 0 0 0 0 0 0 0 0 0 0 0 0 0 0 0 0 0 0 0 0 0 0 0 0 0 0 0 0 0 0 0 0 0 0 0 0 0 0 0 0
0 0 0 0 0 0 0 0 0 0 0 0 0 0 0 0 0 0 0 0 0 0 0 0 0 0 0 0 0 0 0 0 0 0 0 0 0 0 0 0 0 0 0 0
0 0 0 0 0 0 0 0 0 0 0 0 0 0 0 0 0 0 0 0 0 0 0 0 0 0 0 0 0 0 0 0 0 0 0 0 0 0 0 0 0 0 0 0
0 0 0 0 0 0 0 0 0 0 0 0 0 0 0 0 0 0 0 0 0 0 0 0 0 0 0 0 0 0 0 0 0 0 0 0 0 0 0 0 0 0 0 0
0 0 0 0 0 0 0 0 0 0 0 0 0 0 0 0 0 0 0 0 0 0 0 0 0 0 0 0 0 0 0 0 0 0 0 0 0 0 0 0 0 0 0 0
0 0 0 0 0 0 0 0 0 0 0 0 0 0 0 0 0 0 0 0 0 0 0 0 0 0 0 0 0 0 0 0 0 0 0 0 0 0 0 0 0 0 0 0
0 0 0 0 0 0 0 0 0 0 0 0 0 0 0 0 0 0 0 0 0 0 0 0 0 0 0 0 0 0 0 0 0 0 0 0 0 0 0 0 0 0 0 0
0 0 0 0 0 0 0 0 0 0 0 0 0 0 0 0 0 0 0 0 0 0 0 0 0 0 0 0 0 0 0 0 0 0 0 0 0 0 0 0 0 0 0 0
0 0 0 0 0 0 0 0 0 0 0 0 0 0 0 0 0 0 0 0 0 0 0 0 0 0 0 0 0 0 0 0 0 0 0 0 0 0 0 0 0 0 0 0
0 0 0 0 0 0 0 0 0 0 0 0 0 0 0 0 0 0 0 0 0 0 0 0 0 0 0 0 0 0 0 0 0 0 0 0 0 0 0 0 0 0 0 0
0 0 0 0 0 0 0 0 0 0 0 0 0 0 0 0 0 0 0 0 0 0 0 0 0 0 0 0 0 0 0 0 0 0 0 0 0 0 0 0 0 0 0 0
0 0 0 0 0 0 0 0 0 0 0 0 0 0 0 0 0 0 0 0 0 0 0 0 0 0 0 0 0 0 0 0 0 0 0 0 0 0 0 0 0 0 0 0
0 0 0 0 0 0 0 0 0 0 0 0 0 0 0 0 0 0 0 0 0 0 0 0 0 0 0 0 0 0 0 0 0 0 0 0 0 0 0 0 0 0 0 0
0 0 0 0 0 0 0 0 0 0 0 0 0 0 0 0 0 0 0 0 0 0 0 0 0 0 0 0 0 0 0 0 0 0 0 0 0 0 0 0 0 0 0 0
0 0 0 0 0 0 0 0 0 0 0 0 0 0 0 0 0 0 0 0 0 0 0 0 0 0 0 0 0 0 0 0 0 0 0 0 0 0 0 0 0 0 0 0
0 0 0 0 0 0 0 0 0 0 0 0 0 0 0 0 0 0 0 0 0 0 0 0 0 0 0 0 0 0 0 0 0 0 0 0 0 0 0 0 0 0 0 0
0 0 0 0 0 0 0 0 0 0 0 0 0 0 0 0 0 0 0 0 0 0 0 0 0 0 0 0 0 0 0 0 0 0 0 0 0 0 0 0 0 0 0 0
0 0 0 0 0 0 0 0 0 0 0 0 0 0 0 0 0 0 0 0 0 0 0 0 0 0 0 0 0 0 0 0 0 0 0 0 0 0 0 0 0 0 0 0
0 0 0 0 0 0 0 0 0 0 0 0 0 0 0 0 0 0 0 0 0 0 0 0 0 0 0 0 0 0 0 0 0 0 0 0 0 0 0 0 0 0 0 0
Wind_Speed
4 2 1 2 3 3 4 1 2 7 8 8 9 9 10 7 7 10 13 14 14 15 15 15 14 16 16 15 14 15 15 15 14 14 14 14 14 15 16 15 14 15 16 14
5 3 3 4 3 4 3 1 4 6 7 6 8 7 11 7 8 12 13 15 15 15 15 15 15 16 16 15 15 15 15 15 15 14 14 14 14 14 15 14 12 11 13 15
4 4 2 1 1 2 2 4 3 4 8 9 12 14 13 9 12 12 13 13 12 12 13 12 13 14 14 15 15 15 14 15 15 15 14 14 14 14 14 14 12 8 9 11
2 4 2 2 2 3 3 5 2 7 10 8 8 11 4 6 10 11 10 9 9 9 11 11 11 13 12 13 13 14 14 15 15 14 14 14 14 14 14 13 12 9 7 9
1 1 3 2 3 3 4 5 2 7 9 9 10 9 0 6 8 9 7 6 7 7 9 10 10 11 11 12 13 14 14 15 15 14 13 13 14 14 13 12 11 10 8 7
2 1 5 3 4 3 1 4 4 4 6 7 11 11 6 6 7 8 6 8 8 8 9 9 11 11 10 11 13 14 15 15 14 13 12 11 12 12 12 11 11 10 8 8
2 4 7 4 4 2 1 5 5 3 3 3 3 8 8 7 7 7 6 9 9 8 6 7 10 11 11 11 13 14 14 14 14 13 12 11 11 10 10 10 10 10 9 10
3 4 6 2 1 1 5 5 5 2 2 4 6 6 6 7 7 7 8 9 10 8 8 7 9 11 11 12 14 14 13 14 13 13 11 10 11 11 10 9 9 8 7 7
6 6 4 1 3 4 4 3 1 1 4 4 4 6 7 8 7 7 8 8 8 8 8 7 9 10 11 12 13 13 13 13 12 12 11 11 11 11 9 9 8 7 7 7
2 3 3 2 2 2 1 1 1 1 2 1 3 4 5 8 8 7 8 9 9 9 10 9 10 10 10 11 12 12 12 11 11 10 12 10 9 9 9 9 8 8 8 7
3 5 4 2 2 0 3 3 1 0 3 2 1 3 3 5 7 7 8 8 9 9 9 10 10 10 11 10 11 11 11 10 9 8 8 8 8 9 9 10 12 10 8 7
4 4 2 3 2 2 3 2 2 2 3 4 4 1 3 4 5 6 7 8 9 9 9 10 10 11 10 10 10 9 10 10 9 8 6 7 7 8 13 17 20 19 19 14
2 3 3 1 2 3 4 3 3 4 4 3 2 2 3 4 6 8 8 9 9 10 10 10 10 11 11 10 10 10 9 10 9 9 6 7 7 7 7 11 16 18 18 18
2 2 1 1 2 4 4 4 6 7 5 4 3 3 3 4 5 6 7 8 9 9 10 10 11 11 11 11 11 11 10 12 10 7 6 6 6 7 7 7 7 9 13 15
3 3 3 4 5 4 4 4 6 4 3 4 3 3 4 4 5 6 7 8 10 10 9 11 11 12 12 12 12 12 11 9 9 8 7 8 7 7 7 6 5 5 8 10
3 4 5 5 5 5 4 4 4 2 2 2 3 4 5 4 5 6 7 7 8 10 11 11 11 13 13 13 13 11 11 16 16 10 9 9 7 7 7 6 6 5 5 5
3 1 1 3 4 4 4 4 4 4 3 2 3 5 5 5 6 7 8 8 8 10 11 10 12 15 14 13 13 11 11 13 18 12 9 9 9 8 8 7 7 6 6 8
4 3 3 4 6 7 6 5 5 4 2 2 3 4 5 6 7 10 11 11 11 11 9 10 13 16 14 15 14 12 12 13 13 10 9 9 10 9 8 8 8 8 7 8
6 6 6 6 5 7 6 5 4 3 2 2 3 4 5 5 6 9 10 10 10 11 13 14 20 18 15 20 21 13 12 12 12 11 10 12 12 10 9 9 9 8 7 7
7 7 7 7 6 6 6 5 5 3 2 1 2 4 5 6 7 9 10 9 8 9 14 16 17 14 16 20 21 12 11 12 12 12 12 12 11 10 9 11 10 8 7 7
7 7 8 7 6 5 6 6 5 3 2 2 2 3 5 7 7 8 9 11 11 14 18 19 14 14 14 16 16 12 12 12 12 12 12 12 12 12 10 9 8 8 8 7
7 7 7 7 7 5 4 4 4 4 2 1 2 3 5 7 8 8 8 8 12 18 15 11 12 19 22 21 13 12 13 13 13 13 12 12 12 11 10 8 6 6 6 5
7 7 8 7 7 7 4 3 3 3 1 2 3 4 5 6 6 7 10 12 12 18 14 11 20 28 28 16 12 13 13 14 14 13 13 13 13 13 12 9 4 3 3 3
7 8 7 6 8 7 4 3 2 2 1 4 5 4 4 6 6 5 8 15 19 20 15 16 23 27 22 12 12 12 12 13 13 13 13 13 12 12 12 11 7 4 2 1
7 7 7 8 7 5 5 4 1 1 2 3 4 3 3 3 5 9 9 11 17 17 13 18 24 23 15 12 12 13 13 13 14 13 12 11 11 11 11 10 8 6 4 3
8 7 6 6 5 5 4 4 2 1 1 1 2 3 3 4 5 6 8 10 12 13 11 11 13 14 12 13 13 13 13 14 14 12 11 10 9 9 9 8 8 6 5 4
6 6 5 4 3 4 5 4 3 2 1 1 2 3 4 5 6 8 9 9 9 10 10 10 11 12 12 13 13 13 13 13 15 13 9 8 7 6 6 7 6 5 4 4
Wind_Direction
284 329 316 308 8 43 80 56 240 276 290 300 313 310 310 334 342 344 350 353 354 351 348 345 348 345 342 337 338 337 336 335 333 335 334 332 336 337 337 340 345 349 359 10
314 12 16 71 42 62 77 313 282 295 289 281 288 304 321 347 346 349 348 349 351 349 345 346 349 343 339 337 340 341 339 336 335 336 337 337 336 335 339 338 343 354 3 6
279 333 44 95 41 65 311 273 271 286 281 300 319 326 331 354 351 348 341 347 347 345 342 342 344 338 335 339 341 342 339 337 336 337 337 338 339 340 341 342 338 357 10 8
285 344 293 227 212 193 256 274 262 289 285 291 297 303 354 11 350 341 339 346 341 340 336 337 338 336 336 340 341 340 340 340 339 338 338 339 341 342 341 343 346 354 13 15
8 272 277 242 253 267 285 280 227 273 297 312 317 300 49 12 353 336 344 345 337 339 334 335 334 331 335 341 343 342 342 340 338 339 339 344 345 342 344 345 347 347 5 8
102 298 265 233 252 261 234 268 246 266 300 314 329 333 342 5 352 342 359 354 347 342 339 339 336 333 335 341 344 343 341 338 336 338 337 344 344 342 343 347 348 352 6 8
178 239 262 246 268 311 61 283 290 265 275 294 302 296 317 347 346 347 4 350 348 335 328 327 332 335 338 341 344 338 336 336 338 340 339 350 344 340 339 344 347 351 6 7
174 248 272 235 326 194 240 269 277 289 268 264 280 302 324 337 340 349 349 346 344 336 329 329 335 338 338 340 337 336 335 337 340 339 345 350 343 341 340 346 344 340 351 2
202 224 233 247 210 230 231 268 352 264 266 283 311 322 335 340 343 349 339 341 338 334 329 332 337 338 335 335 336 336 336 338 339 341 351 346 344 343 347 352 347 345 349 352
264 251 233 221 245 282 17 94 129 220 248 98 284 319 344 344 344 343 338 341 338 335 335 334 335 335 329 331 334 334 335 335 337 349 354 344 344 343 348 348 347 352 349 341
259 284 310 292 324 352 116 105 107 103 136 151 61 8 344 336 342 334 333 337 334 333 332 328 328 328 326 327 329 331 333 332 333 350 343 335 339 342 347 344 350 350 339 334
227 217 185 264 295 104 121 139 170 161 123 80 78 18 337 337 330 329 338 333 333 331 329 326 324 322 321 323 324 323 330 330 331 343 332 332 328 332 342 348 350 351 342 337
192 192 174 148 102 99 124 155 153 117 105 98 74 36 358 331 330 348 341 333 328 324 322 320 318 316 315 317 320 317 319 319 327 329 321 322 322 324 325 330 338 342 345 344
72 89 87 51 96 93 106 104 94 92 89 80 58 32 351 326 327 336 326 322 320 318 314 315 314 311 312 315 316 311 307 314 315 304 299 303 308 311 308 311 316 318 330 339
93 94 136 124 109 95 96 99 95 83 66 52 26 6 349 334 326 318 311 318 321 317 312 313 314 311 312 313 312 309 305 299 296 293 286 295 299 293 292 288 286 291 309 324
108 115 128 131 142 132 114 102 117 112 72 28 359 346 333 319 309 304 306 320 321 313 309 308 307 310 313 309 307 304 297 296 298 290 286 288 278 271 272 272 273 270 272 283
102 97 141 149 146 122 114 121 128 124 97 28 345 335 334 328 321 320 320 315 302 292 294 298 301 307 307 304 303 294 291 291 294 289 287 288 284 277 272 266 262 262 262 267
133 138 143 146 146 139 132 122 111 102 80 17 9 350 340 341 333 319 315 316 314 307 301 302 306 307 310 308 301 294 292 293 294 289 289 286 281 272 263 262 263 267 270 273
130 129 115 104 113 123 129 128 122 119 92 58 24 339 324 324 315 307 311 316 315 313 315 313 312 319 312 305 308 307 303 302 303 301 296 294 290 280 269 259 253 252 260 268
121 117 111 105 106 120 125 133 133 116 92 67 16 335 336 328 320 316 313 303 290 290 302 313 322 320 312 308 318 326 319 315 311 307 303 300 293 285 272 267 263 253 245 246
135 127 123 123 122 120 125 143 142 132 117 71 20 332 320 315 318 317 317 314 314 320 324 328 328 317 315 327 340 332 324 319 316 311 308 304 298 290 279 266 256 250 248 244
137 136 137 136 133 125 132 148 145 140 123 23 329 326 322 324 324 316 296 284 307 325 328 330 324 329 341 346 338 330 327 325 323 319 317 313 308 303 294 279 257 246 242 230
139 139 143 150 149 140 140 145 151 151 162 279 301 324 317 313 314 319 322 319 323 328 334 332 335 343 348 346 334 330 330 329 328 325 326 332 341 345 343 329 301 231 223 210
134 137 142 141 130 136 162 203 210 202 236 275 282 289 301 321 320 297 293 313 326 335 337 336 342 347 349 340 332 333 335 333 331 333 340 353 0 359 359 358 22 56 46 43
130 133 143 150 153 174 186 193 209 281 287 284 292 300 300 294 298 307 318 320 328 337 334 337 344 344 342 337 337 338 337 336 337 343 356 5 5 4 7 8 23 43 37 29
145 155 166 167 165 164 169 172 169 198 235 309 324 332 326 314 314 320 322 328 333 335 335 332 336 339 339 339 342 340 338 338 340 350 1 6 8 6 8 8 9 18 22 22
142 153 149 151 162 166 176 179 174 195 201 244 312 327 329 325 332 339 337 335 335 334 334 334 336 342 343 341 341 340 340 341 346 351 357 3 7 3 2 2 359 357 359 7